Change the Weather History Date:

Monday, January 6, 2014

  Actual Average Record
Temperature  
Mean Temperature 2 °F -  
Max Temperature 18 °F 31 °F 50 °F (1987)
Min Temperature -13 °F 15 °F -13 °F (2014)
Degree Days  
Heating Degree Days 62    
Moisture  
Dew Point -9 °F    
Average Humidity 70    
Maximum Humidity 83    
Minimum Humidity 59    
Precipitation  
Precipitation 0.00 in - - ()
Sea Level Pressure  
Sea Level Pressure 30.00 in    
Wind  
Wind Speed 16 mph (WSW)    
Max Wind Speed 24 mph    
Max Gust Speed 33 mph    
Visibility 3 miles    
Events Snow    
Averages and records for this station are not official NWS values.
T = Trace of Precipitation, MM = Missing Value Source: NWS Daily Summary

Daily Weather History Graph

Daily Weather History Graph

Search for Another Location

Airport or City:

Trip Planner

Search our weather history database for the weather conditions in past years. The results will help you decide how hot, cold, wet, or windy it might be!

Date:

Astronomy

Jan. 06, 2014 Rise Set
Actual Time 8:10 AM EST 5:26 PM EST
Civil Twilight 7:38 AM EST 5:57 PM EST
Nautical Twilight 7:04 AM EST 6:32 PM EST
Astronomical Twilight 6:30 AM EST 7:06 PM EST
Moon 11:19 AM EST (1/6) No Moon Set
Length of Visible Light 10h 18m
Length of Day
9h 16m
Waxing Crescent, 34% of the Moon is Illuminated
Jan 6
Waxing Crescent
Jan 7
First Quarter
Jan 15
Full
Jan 24
Last Quarter
Jan 30
New

Hourly Weather History & Observations

Time (EST) Temp. Windchill Dew Point Humidity Pressure Visibility Wind Dir Wind Speed Gust Speed Precip Events Conditions
12:14 AM 18.9 °F 5.3 °F 13.5 °F 79% 29.76 in - NNW 13.8 mph 21.9 mph N/A   Overcast
12:35 AM 18.3 °F 6.6 °F 12.7 °F 79% 29.76 in - NW 10.4 mph 20.7 mph N/A   Overcast
12:55 AM 17.6 °F 5.7 °F 12.2 °F 79% 29.77 in - NW 10.4 mph 20.7 mph N/A   Overcast
1:14 AM 17.4 °F 4.7 °F 12.2 °F 80% 29.77 in - NW 11.5 mph - N/A   Overcast
1:35 AM 18.3 °F 3.1 °F 13.5 °F 81% 29.78 in - NW 17.3 mph - N/A   Overcast
1:55 AM 18.1 °F 3.4 °F 13.6 °F 83% 29.79 in - WNW 16.1 mph 24.2 mph N/A   Overcast
2:14 AM 17.1 °F 1.0 °F 12.2 °F 81% 29.79 in 2.5 mi WNW 18.4 mph 26.5 mph N/A Snow Light Snow
2:35 AM 16.3 °F 1.6 °F 11.3 °F 81% 29.81 in 4.0 mi WNW 15.0 mph 24.2 mph N/A Snow Light Snow
2:55 AM 15.8 °F 0.3 °F 10.8 °F 80% 29.81 in 4.0 mi WNW 16.1 mph 28.8 mph N/A Snow Light Snow
3:15 AM 14.9 °F -2.7 °F 9.7 °F 80% 29.82 in 5.0 mi WNW 20.7 mph 26.5 mph N/A Snow Light Snow
3:35 AM 14.5 °F -3.2 °F 9.1 °F 79% 29.83 in 4.0 mi WNW 20.7 mph 25.3 mph N/A Snow Light Snow
3:54 AM 13.1 °F -4.6 °F 7.7 °F 79% 29.84 in 3.0 mi West 19.6 mph 27.6 mph N/A Snow Light Snow
4:15 AM 12.2 °F -5.8 °F 6.6 °F 78% 29.85 in 3.0 mi West 19.6 mph 27.6 mph N/A Snow Light Snow
4:35 AM 10.2 °F -10.1 °F 4.6 °F 78% 29.86 in 2.0 mi West 24.2 mph 28.8 mph N/A Snow Light Snow
4:54 AM 8.6 °F -12.3 °F 3.2 °F 79% 29.87 in 1.8 mi West 24.2 mph 33.4 mph N/A Snow Light Snow
5:15 AM 7.5 °F -13.3 °F 1.8 °F 77% 29.87 in 2.5 mi West 23.0 mph 31.1 mph N/A   Haze
5:34 AM 6.8 °F -14.3 °F 0.7 °F 76% 29.89 in 2.5 mi West 23.0 mph 28.8 mph N/A   Haze
5:55 AM 6.4 °F -13.3 °F -0.0 °F 75% 29.90 in 4.0 mi West 19.6 mph 26.5 mph N/A   Haze
6:15 AM 6.3 °F -8.4 °F -0.0 °F 75% 29.90 in 2.5 mi WSW 10.4 mph 24.2 mph N/A Snow Light Snow
6:34 AM 5.0 °F -15.7 °F -1.5 °F 75% 29.91 in 2.5 mi West 20.7 mph 29.9 mph N/A   Haze
6:55 AM 4.1 °F -15.3 °F -2.2 °F 75% 29.92 in 2.0 mi West 17.3 mph 26.5 mph N/A Snow Light Snow
7:15 AM 3.2 °F -17.6 °F -3.3 °F 74% 29.93 in 1.8 mi West 19.6 mph 27.6 mph N/A Snow Light Snow
7:34 AM 2.3 °F -15.0 °F -5.1 °F 71% 29.94 in 4.0 mi West 12.7 mph 23.0 mph N/A   Haze
7:55 AM 1.4 °F -17.6 °F -5.8 °F 72% 29.96 in 3.0 mi West 15.0 mph 21.9 mph N/A   Haze
8:15 AM 0.3 °F -19.6 °F -7.2 °F 70% 29.96 in 3.0 mi West 16.1 mph 27.6 mph N/A   Haze
8:34 AM -0.4 °F -18.4 °F -7.6 °F 72% 29.97 in 4.0 mi West 12.7 mph 25.3 mph N/A   Haze
8:55 AM -0.4 °F -18.4 °F -7.8 °F 71% 29.97 in 4.0 mi West 12.7 mph - N/A   Haze
9:14 AM -0.0 °F -21.3 °F -7.6 °F 70% 29.98 in 2.5 mi WSW 18.4 mph 26.5 mph N/A   Haze
9:35 AM -3.5 °F -22.3 °F -10.3 °F 73% 29.99 in 1.0 mi SW 12.7 mph 16.1 mph N/A   Haze
9:55 AM -5.3 °F -26.8 °F -12.1 °F 72% 30.00 in 1.0 mi WSW 16.1 mph 21.9 mph N/A   Haze
10:14 AM -5.8 °F -25.2 °F -12.5 °F 73% 30.01 in 0.8 mi SW 12.7 mph 19.6 mph N/A   Haze
10:35 AM -5.4 °F -25.6 °F -12.1 °F 73% 30.01 in 0.5 mi WSW 13.8 mph 19.6 mph N/A Snow Light Snow
10:55 AM -3.5 °F -25.1 °F -9.6 °F 75% 30.01 in 1.0 mi West 17.3 mph 21.9 mph N/A   Haze
11:15 AM -1.7 °F -22.2 °F -9.2 °F 70% 30.01 in 1.0 mi WSW 16.1 mph 25.3 mph N/A   Haze
11:35 AM -1.7 °F -25.0 °F -9.6 °F 69% 30.00 in 1.0 mi West 21.9 mph 28.8 mph N/A   Haze
11:54 AM -1.7 °F -21.5 °F -9.8 °F 68% 30.00 in 1.2 mi WSW 15.0 mph 25.3 mph N/A   Haze
12:15 PM -1.8 °F -24.7 °F -10.3 °F 67% 30.00 in 1.5 mi West 20.7 mph 26.5 mph N/A   Haze
12:35 PM -2.2 °F -21.5 °F -10.8 °F 67% 30.00 in 1.5 mi West 13.8 mph 29.9 mph N/A   Haze
12:55 PM -2.4 °F -22.4 °F -11.2 °F 66% 30.00 in 2.0 mi West 15.0 mph 25.3 mph N/A   Haze
1:15 PM -2.6 °F -24.0 °F -11.6 °F 65% 30.00 in 1.8 mi West 17.3 mph 25.3 mph N/A   Haze
1:34 PM -3.1 °F -23.3 °F -12.3 °F 65% 30.01 in 2.0 mi West 15.0 mph 25.3 mph N/A   Haze
1:55 PM -3.8 °F -24.3 °F -13.5 °F 63% 30.02 in 2.0 mi WSW 15.0 mph 20.7 mph N/A   Haze
2:15 PM -4.9 °F -28.2 °F -15.0 °F 62% 30.02 in 2.5 mi WSW 19.6 mph 28.8 mph N/A   Haze
2:34 PM -5.6 °F -25.8 °F -15.9 °F 61% 30.04 in 3.0 mi WSW 13.8 mph 25.3 mph N/A   Haze
2:55 PM -6.3 °F -25.0 °F -16.6 °F 61% 30.05 in 2.5 mi WSW 11.5 mph 26.5 mph N/A   Haze
3:15 PM -6.7 °F -28.7 °F -17.1 °F 61% 30.06 in 4.0 mi WSW 16.1 mph 25.3 mph N/A   Haze
3:34 PM -7.1 °F -32.1 °F -18.0 °F 59% 30.07 in 5.0 mi West 21.9 mph 31.1 mph N/A   Haze
3:55 PM -8.0 °F -28.0 °F -18.4 °F 60% 30.08 in 4.0 mi WSW 12.7 mph 23.0 mph N/A   Haze
4:15 PM -8.5 °F -32.9 °F -19.3 °F 59% 30.09 in 5.0 mi WSW 19.6 mph 26.5 mph N/A   Haze
4:34 PM -9.2 °F -27.7 °F -19.7 °F 60% 30.10 in 7.0 mi WSW 10.4 mph 23.0 mph N/A   Scattered Clouds
4:55 PM -10.3 °F -31.8 °F -20.4 °F 61% 30.10 in 7.0 mi SW 13.8 mph 21.9 mph N/A   Mostly Cloudy
5:15 PM -11.7 °F -33.6 °F -20.7 °F 64% 30.11 in 3.0 mi SW 13.8 mph 24.2 mph N/A   Haze
5:34 PM -12.3 °F -35.1 °F -20.9 °F 65% 30.12 in 3.0 mi SW 15.0 mph 20.7 mph N/A   Haze
5:55 PM -12.6 °F -34.7 °F -21.1 °F 66% 30.12 in 4.0 mi SW 13.8 mph 18.4 mph N/A   Haze
6:15 PM -13.0 °F -36.0 °F -21.5 °F 66% 30.13 in 4.0 mi SW 15.0 mph 23.0 mph N/A   Haze
6:35 PM -13.2 °F -36.2 °F -22.4 °F 64% 30.13 in 5.0 mi SW 15.0 mph 18.4 mph N/A   Haze
6:55 PM -13.5 °F -35.0 °F -22.2 °F 65% 30.14 in 3.0 mi SW 12.7 mph 24.2 mph N/A   Haze
7:14 PM -13.5 °F -36.7 °F -22.5 °F 64% 30.14 in 3.0 mi SW 15.0 mph 24.2 mph N/A   Haze
7:35 PM -13.7 °F -36.1 °F -22.2 °F 66% 30.14 in 3.0 mi SW 13.8 mph 21.9 mph N/A   Haze
7:55 PM -13.5 °F -35.9 °F -22.0 °F 66% 30.14 in 2.5 mi SW 13.8 mph 21.9 mph N/A   Haze
8:14 PM -13.4 °F -36.5 °F -21.5 °F 67% 30.14 in 2.5 mi SW 15.0 mph 24.2 mph N/A   Haze
8:35 PM -13.0 °F -34.3 °F -20.7 °F 68% 30.14 in 1.8 mi SW 12.7 mph 21.9 mph N/A   Haze
8:55 PM -12.8 °F -35.8 °F -20.4 °F 69% 30.14 in 1.8 mi SW 15.0 mph 20.7 mph N/A   Haze
9:14 PM -12.5 °F -35.3 °F -20.2 °F 68% 30.14 in 2.0 mi WSW 15.0 mph 21.9 mph N/A   Haze
9:35 PM -12.1 °F -34.1 °F -19.3 °F 70% 30.14 in 1.5 mi WSW 13.8 mph 23.0 mph N/A Snow Light Snow
9:55 PM -11.9 °F -33.0 °F -19.3 °F 70% 30.14 in 1.5 mi WSW 12.7 mph 19.6 mph N/A   Haze
10:14 PM -11.7 °F -32.7 °F -19.3 °F 69% 30.13 in 2.0 mi SW 12.7 mph 19.6 mph N/A   Haze
10:35 PM -11.6 °F -32.5 °F -19.3 °F 69% 30.13 in 2.0 mi WSW 12.7 mph 24.2 mph N/A   Haze
10:55 PM -11.6 °F -32.5 °F -19.3 °F 69% 30.13 in 2.0 mi SW 12.7 mph 20.7 mph N/A   Haze
11:15 PM -11.6 °F -34.2 °F -19.3 °F 69% 30.12 in 2.0 mi SW 15.0 mph 21.9 mph N/A   Haze
11:35 PM -11.6 °F -32.5 °F -19.1 °F 69% 30.13 in 1.8 mi SW 12.7 mph 23.0 mph N/A Snow Light Snow
11:54 PM -11.4 °F -29.3 °F -18.8 °F 70% 30.13 in 2.0 mi SW 9.2 mph 18.4 mph N/A   Haze